Location: *
(51.4660°N, 0.3360°W)
Time: 00:36:09
(UTC+00:00)

ATLAS CENTAUR R/B - Pass Details

Date: 19 September 2019
Orbit: 451 x 698 km, 64.7° (Epoch: 08 October)

Event Time Altitude Azimuth Distance (km) Brightness Sun altitude
Exits shadow 23:28:41 14° 31° (NNE) 1,854 4.4 -36.9°
Drops below altitude 10° 23:29:26 10° 34° (NE) 2,111 4.7 -37.0°
Sets 23:31:50 0° 42° (NE) 2,997 5.5 -37.0°
